Location: Charing
(51.2000°N, 0.8000°E)
Time: 23:47:22
(UTC+00:00)

Daily predictions for brighter satellites

Satellite Brightness Start Highest point End
(mag) Time Altitude Azimuth Time Altitude Azimuth Time Altitude Azimuth
NOSS 2-1 (E) 4.3 17:52:18 10° NW 17:56:52 56° NE 18:03:12 10° ESE
Cosmos 2369 4.2 17:54:15 10° S 17:59:27 39° ESE 18:04:42 10° NE
Feng Yun 1-1 Rocket 4.5 17:56:41 10° SSE 18:02:32 88° ENE 18:08:30 10° NNW
Cosmos 1607 4.1 17:56:54 10° SSW 18:03:11 62° ESE 18:09:36 10° NE
Cosmos 2369 Rocket 4.5 18:00:29 10° WNW 18:03:46 15° NNW 18:07:03 10° N
Meteor 1-10 Rocket 4.3 17:58:24 10° N 18:04:13 76° ENE 18:09:53 10° SSE
SeaSat 1 3.2 18:00:46 10° NE 18:05:13 32° ESE 18:09:38 10° S
Cosmos 2263 Rocket 2.7 18:01:24 10° NNW 18:06:39 39° NE 18:11:51 10° ESE
SKYMED 2 3.6 18:02:48 10° NNE 18:07:09 66° ESE 18:11:28 10° S
USA 307 4.4 18:04:01 10° S 18:07:11 20° SE 18:10:21 10° E
CZ-4 R/B 1.3 18:04:10 10° SSE 18:07:56 55° ENE 18:11:44 10° N
Cosmos 1420 Rocket 4.1 18:03:35 10° SSW 18:08:55 86° WNW 18:14:17 10° NNE
USA 306 4.3 18:10:06 10° S 18:13:29 23° SE 18:16:44 11° E
Cosmos 2227 Rocket 3.5 18:09:05 10° NW 18:14:28 46° WSW 18:19:49 10° S
USA 308 4.2 18:13:57 10° S 18:17:22 23° SE 18:20:26 12° E
Cosmos 1939 Rocket 4.3 18:13:47 10° S 18:17:27 41° W 18:21:08 10° NNW
H-2A R/B 2.9 18:15:48 10° N 18:19:48 51° WNW 18:23:46 10° SW
Cosmos 1743 Rocket 3.5 18:15:57 10° S 18:20:17 72° E 18:24:42 10° NNE
Cosmos 1850 Rocket 4.2 18:15:55 10° NNW 18:21:06 76° WSW 18:26:17 10° SSE
Cosmos 1805 Rocket 3.9 18:17:19 10° SSE 18:21:24 41° E 18:25:32 10° NNE
Meteor 1-27 Rocket 3.6 18:18:35 10° N 18:24:08 70° ENE 18:29:38 10° SSE
Cosmos 2228 Rocket 3.1 18:22:41 10° N 18:27:16 87° ENE 18:31:47 10° S
H-2A R/B 2.2 18:22:17 10° SSE 18:27:43 83° ENE 18:33:13 10° NNW
ARGOS 3.2 18:23:14 10° SSE 18:28:34 63° ENE 18:33:56 10° N
Cosmos 1862 3.5 18:25:08 10° SSW 18:29:09 78° W 18:33:14 10° N
Cosmos 1271 Rocket 3.3 18:26:29 10° N 18:29:56 33° ENE 18:33:21 10° SE
COSMOS 2455 2.9 18:24:10 10° NW 18:30:14 85° NE 18:36:17 10° SE
SJ-6B 4.2 18:28:38 12° ESE 18:31:14 21° ENE 18:34:21 10° NNE
Cosmos 2278 4.0 18:26:27 10° S 18:31:47 44° ESE 18:37:10 10° NE
FALCON 9 DEB 4.3 18:29:16 10° SSW 18:31:55 25° SE 18:33:29 17° ESE
OBJECT-B 2.7 18:32:13 13° ENE 18:32:13 13° ENE 18:33:47 10° NNE
SL-08 RB Rocket 3.9 18:29:03 10° SE 18:33:21 47° ENE 18:37:43 10° N
GP-B 4.4 18:33:07 12° ESE 18:35:56 20° ENE 18:39:08 10° NNE
Cosmos 1812 4.1 18:32:16 10° NNW 18:35:57 43° W 18:39:35 10° SSW
HJ-1C 3.3 18:32:47 10° SSE 18:36:03 60° ENE 18:39:21 10° N
Okean 1 4.4 18:33:16 10° NNE 18:36:34 24° ENE 18:38:49 15° ESE
CZ-2C R/B 3.1 18:31:52 10° NNE 18:37:04 38° E 18:42:08 10° SSE
Cosmos 1689 Rocket 2.2 18:34:44 10° NNE 18:37:31 43° E 18:40:16 10° S
Cosmos 44 Rocket 4.4 18:33:07 10° NNW 18:37:51 33° NNE 18:41:14 17° E
FALCON 9 DEB 3.2 18:34:41 10° W 18:38:07 71° N 18:40:28 19° ENE
Cosmos 2278 Rocket 4.3 18:39:25 10° N 18:41:17 11° NNE 18:43:09 10° NE
Cosmos 1862 Rocket 4.3 18:37:32 10° N 18:41:35 32° ENE 18:45:35 10° SE
CSL-04 Debris 4.1 18:36:25 10° SSE 18:41:49 72° ENE 18:47:16 10° NNW
ATLAS 5 CENTAUR R/B 3.3 18:26:47 10° SW 18:42:41 87° SE 18:46:35 12° NE
Cosmos 2084 3.7 18:38:45 10° SSW 18:42:50 49° SE 18:46:18 14° NE
Cosmos 1666 Rocket 4.1 18:39:26 10° SSE 18:43:21 33° E 18:47:14 10° NNE
Cosmos 1709 Rocket 4.2 18:38:14 10° SSW 18:44:23 78° W 18:50:40 10° N
Cosmos 1844 Rocket 3.9 18:39:56 10° NNW 18:44:24 24° NE 18:47:04 17° ENE
BREEZE-M DEB (TANK) 2.1 18:42:29 10° SW 18:44:36 44° SSE 18:46:17 22° E
CZ-2C R/B 4.5 18:39:02 10° S 18:44:37 47° W 18:50:05 10° NNW
Cosmos 2181 Rocket 4.2 18:38:16 10° N 18:44:46 86° W 18:51:12 10° S
NOSS 2-1 (C) 4.3 18:40:40 10° NW 18:45:25 77° SW 18:52:08 10° SE
Gbstr 26 Del rocket 4.2 18:42:49 10° SSW 18:46:47 31° SE 18:49:30 20° E
Cosmos 1331 Rocket 4.1 18:41:56 10° S 18:47:05 55° ESE 18:52:13 10° NNE
TSX-5 4.0 18:43:42 10° NW 18:48:31 81° WSW 18:52:16 10° SSE
CSL-04 Rocket 3.7 18:43:39 10° SSE 18:49:12 76° ENE 18:54:45 10° NNW
Cosmos 292 Rocket 3.7 18:45:29 10° SSW 18:50:14 85° ESE 18:55:02 10° NNE
NOSS 2-1 (D) 4.4 18:46:46 10° NW 18:51:33 71° SW 18:58:18 10° SSE
COSMO-SKYMED 1 3.8 18:51:03 10° N 18:55:12 44° WNW 18:59:20 10° SW
FALCON 9 DEB 3.8 18:53:24 10° SSW 18:56:19 33° SSE 18:56:59 29° ESE
YAOGAN 1 3.4 18:53:36 10° S 18:57:50 54° W 19:02:07 10° NNW
Helios 1A Rocket 3.0 18:54:12 10° SSE 18:58:17 80° WSW 19:02:22 10° NNW
Okean-O 3.4 18:54:51 10° S 18:59:12 55° W 19:03:35 10° NNW
Cosmos 220 Rocket 3.8 18:57:49 10° SSW 19:02:00 74° ESE 19:06:16 10° NNE
SL-4 R/B 1.6 18:58:37 10° WSW 19:02:07 61° SSE 19:03:19 35° E
FALCON 9 DEB 3.4 19:01:40 10° SW 19:04:41 42° SSE 19:05:10 38° SE
APEX 2.6 19:02:17 10° NNW 19:05:23 50° NE 19:05:43 46° E
Lacrosse 5 rocket 3.4 19:02:27 10° WNW 19:06:11 27° SW 19:09:45 10° S
Cosmos 1980 Rocket 2.1 19:01:20 10° SSW 19:07:00 81° ESE 19:12:44 10° NNE
CZ-4B R/B 3.8 19:06:32 10° NNW 19:09:02 23° WNW 19:11:29 10° WSW
Sich 1 3.0 19:05:15 10° S 19:09:37 88° W 19:14:04 10° N
Cosmos 2084 Rocket 4.4 19:07:50 10° NW 19:11:45 34° NNE 19:12:58 29° ENE
Cosmos 2227 4.3 19:08:46 10° NNW 19:14:35 84° WSW 19:20:21 10° SSE
Cosmos 1302 Rocket 4.1 19:10:09 10° S 19:15:08 49° ESE 19:20:09 10° NNE
Cosmos 968 Rocket 3.5 19:10:41 10° NNW 19:15:56 64° ENE 19:19:11 23° SE
Cosmos 2322 Rocket 3.3 19:12:11 10° SSE 19:15:03 23° SE 19:15:03 23° SE
Cosmos 1437 3.4 19:15:04 10° NNW 19:17:53 47° W 19:20:40 10° S
Cosmos 1707 Rocket 3.8 19:13:56 10° NNW 19:18:21 69° W 19:22:42 10° S
Cosmos 1503 Rocket 4.4 19:17:29 10° NNW 19:22:27 41° NE 19:23:43 35° E
ERS-2 2.9 19:19:01 10° N 19:22:35 52° WNW 19:26:08 10° SW
Cosmos 1867 3.5 19:18:27 10° SSW 19:23:53 77° SE 19:28:06 17° NE
Cosmos 724 4.4 19:19:16 10° SW 19:25:21 86° NW 19:31:37 10° NE
Cosmos 1633 Rocket 2.9 19:21:21 10° S 19:25:43 72° E 19:30:10 10° NNE
Meteor 1-22 4.5 19:22:48 10° S 19:28:13 86° ESE 19:33:36 10° NNE
Meteor 1-20 Rocket 4.0 19:24:14 10° S 19:29:41 81° E 19:35:11 10° NNE
Cosmos 1697 Rocket 3.8 19:26:07 10° WSW 19:31:32 45° NW 19:36:58 10° NNE
Cosmos 1110 Rocket 4.4 19:27:25 10° SW 19:32:42 65° WNW 19:38:02 10° NNE
USA 234 3.2 19:29:23 23° ENE 19:33:44 79° SSE 19:40:18 10° SW
SL-16 R/B 2.4 19:30:38 10° S 19:35:58 44° ESE 19:37:13 38° ENE
Meteor 1-19 Rocket 4.3 19:30:27 10° NNW 19:36:32 87° E 19:42:26 10° SSE
USA 305 2.8 19:34:35 10° SW 19:38:50 70° SSE 19:39:14 64° ESE
SeaSat 1 3.3 19:38:07 10° NNE 19:42:54 50° NW 19:47:39 10° SW
MOS 1 4.2 19:39:28 24° SSE 19:43:05 79° ENE 19:48:48 10° NNW
CZ-4 R/B 4.4 19:40:56 10° SW 19:43:19 16° W 19:45:42 10° NW
Cosmos 2327 Rocket 4.4 19:37:00 10° S 19:43:23 80° E 19:49:42 10° NNE
Resurs 01 Rocket 2.6 19:44:38 32° NE 19:44:38 32° NE 19:47:39 10° N
DMSP B5D2-2 3.9 19:39:30 10° NNE 19:44:48 85° ESE 19:50:02 10° SSW
Ariane Rocket 2.9 19:43:24 32° SSE 19:45:52 82° ENE 19:51:01 10° NNW
USA 307 2.7 19:42:24 10° WSW 19:46:40 73° SSE 19:46:43 73° SSE
Nadezhda 3 Rocket 4.1 19:40:47 10° NNW 19:47:09 81° W 19:53:30 10° S
Okean 1-7 3.8 19:43:45 10° N 19:46:54 38° NNE 19:46:54 38° NNE
FALCON 9 DEB 4.3 19:45:39 10° WSW 19:47:39 35° SW 19:47:39 35° SW
Cosmos 2154 Rocket 3.9 19:43:42 10° S 19:49:56 88° E 19:56:12 10° N
Cosmos 2263 Rocket 3.1 19:45:24 10° NW 19:50:41 45° WSW 19:55:56 10° S
Cosmos 2242 Rocket 3.7 19:46:12 10° N 19:50:16 56° NE 19:50:16 56° NE
IRS-1A Rocket 4.2 19:47:27 23° SSE 19:51:12 89° WSW 19:56:51 10° NNW
USA 306 2.8 19:48:44 10° WSW 19:52:52 78° S 19:52:52 78° S
Cosmos 1515 4.4 19:52:20 10° NNW 19:56:06 52° W 19:57:16 36° SSW
ASTEX 1 4.1 19:51:41 10° NNE 19:54:53 37° NE 19:54:53 37° NE
USA 308 2.9 19:52:39 10° WSW 19:56:36 73° SW 19:56:36 73° SW
Cosmos 1470 Rocket 3.4 19:53:20 10° S 19:57:49 87° E 20:02:20 10° N
Meteor 1-14 Rocket 4.0 19:54:48 10° S 20:00:22 72° E 20:05:55 10° NNE
OBJECT-B 2.6 20:05:18 30° NW 20:05:18 30° NW 20:07:12 10° NNW
SJ-6B 3.7 20:04:15 35° SSW 20:05:35 50° W 20:09:37 10° NNW
Cosmos 1703 Rocket 4.1 20:01:50 10° N 20:05:12 49° N 20:05:12 49° N
Meteor 2-4 Rocket 3.7 20:04:15 10° NNW 20:10:01 86° WSW 20:11:52 46° S
GP-B 3.7 20:10:27 25° SSW 20:12:52 54° W 20:17:15 10° N
Cosmos 1461 4.3 20:11:09 10° SSW 20:13:50 34° SSW 20:13:50 34° SSW
BREEZE-M DEB (TANK) 4.4 19:58:33 10° W 20:16:06 62° S 20:17:21 53° SE
Cosmos 1932 4.3 20:10:42 10° SSW 20:17:10 76° SE 20:18:17 61° ENE
CZ-2C R/B 3.9 20:12:11 10° N 20:17:23 41° WNW 20:22:28 10° SW
Cosmos 1844 3.7 20:12:19 10° NNW 20:17:59 67° NE 20:17:59 67° NE
Cosmos 44 Rocket 3.5 20:14:36 10° NW 20:19:51 71° SW 20:19:59 70° SW
USA 281 4.2 20:22:43 31° NE 20:22:43 31° NE 20:28:14 10° NNW
Meteor 1-13 Rocket 4.3 20:17:07 10° N 20:22:47 70° NE 20:22:47 70° NE
Resurs 1-3 4.3 20:27:55 52° WNW 20:27:55 52° WNW 20:31:46 10° NNW
Cosmos 2278 Rocket 3.6 20:22:41 10° NNW 20:26:30 26° NNE 20:26:30 26° NNE
Cosmos 1844 Rocket 2.6 20:23:27 10° NNW 20:28:45 80° NNW 20:28:45 80° NNW
Gbstr 26 Del rocket 3.9 20:28:24 10° WSW 20:32:04 55° WSW 20:32:04 55° WSW
SPOT 3 Rocket 3.7 20:34:12 70° NW 20:34:12 70° NW 20:38:56 10° NNW
Cosmos 2341 Rocket 4.0 20:31:11 28° SSW 20:34:47 82° W 20:41:07 10° N
SL-8 Rocket 4.0 20:37:29 68° NNE 20:37:29 68° NNE 20:42:54 10° N
Cosmos 1980 Rocket 4.1 20:46:56 10° W 20:51:40 26° NW 20:56:27 10° NNE
Cosmos 2322 Rocket 3.8 20:54:48 10° SW 20:57:04 25° SW 20:57:04 25° SW
Cosmos 1727 Rocket 4.4 20:54:42 10° N 20:59:28 56° N 20:59:28 56° N
Cosmos 2218 Rocket 4.5 21:05:44 55° N 21:05:44 55° N 21:10:42 10° N
SJ 16-02 4.0 21:08:10 10° NNW 21:08:49 14° NNW 21:08:49 14° NNW
Terra 4.3 21:16:28 15° N 21:16:28 15° N 21:17:17 10° N
USA 234 3.6 21:16:44 60° NNW 21:16:44 60° NNW 21:23:04 10° W
Cosmos 1943 Rocket 4.4 21:15:31 10° NNW 21:17:50 16° NNE 21:17:50 16° NNE
Resurs 01 Rocket 4.1 21:22:11 20° NW 21:22:11 20° NW 21:23:59 10° NW
SL-16 R/B 3.4 21:14:47 10° WSW 21:19:19 39° WNW 21:19:19 39° WNW
USA 281 4.4 22:09:35 36° NNW 22:09:35 36° NNW 22:13:15 10° NNW
Cosmos 2278 Rocket 4.4 22:06:30 10° NNW 22:08:22 22° NW 22:08:22 22° NW
